{"data":{"norad_id":68241,"intl_designator":"2026-054K","name":"STARLINK-37094","alt_names":[],"object_type":"PAYLOAD","status":"ACTIVE","operator":null,"country":"US","launch_date":"2026-03-17","launch_site_code":"AFETR","launch_vehicle":null,"mission":null,"orbit_class":"UNKNOWN","rcs_meters":null,"size_class":null,"mass_kg":null,"dimensions":null,"purposes":["comms"],"wikipedia_slug":null,"has_3d_model":false,"image_url":null,"decayed_at":null,"tle_current":{"epoch":"2026-09-19T23:13:07.642848Z","epoch_age_seconds":97627,"freshness":"FRESH","line1":"1 68241U 26054K   26262.96744957  .00011247  00000+0  34343-3 0  9991","line2":"2 68241  53.1576 111.8832 0001783  19.5409 340.5662 15.34406995 28777","mean_motion":15.34406995,"eccentricity":0.0001783,"inclination_deg":53.1576,"raan_deg":111.8832,"arg_perigee_deg":19.5409,"mean_anomaly_deg":340.5662,"bstar":0.00034343,"rev_number":2877,"period_min":93.847330251515,"perigee_km":461.46273156408,"apogee_km":463.90216777984,"semimajor_km":6840.819449672,"source":"CELESTRAK","updated_at":"2026-09-20T09:00:43.840959Z"}}}